• en Belgique
  • Liste des pays
  • À 7 jours
  • Température de l'eau
  • Carte satellitaire
  • Carte météo
  • Widgets météo
  • user-avatar
    Se connecter

    Météo par heure à Seli

    Ce jour, 11 Décembre, Lundi

    Heure Température Précipitation Vent Pression Humidité
    00:00 +12°C° 0 mm 4 m/s 753 mmHg 74%
    01:00 +12°C° 0 mm 4 m/s 754 mmHg 75%
    02:00 +12°C° 0 mm 3 m/s 753 mmHg 79%
    03:00 +12°C° 0 mm 3 m/s 754 mmHg 79%
    04:00 +11°C° 0 mm 3 m/s 754 mmHg 80%
    05:00 +11°C° 0 mm 3 m/s 754 mmHg 80%
    06:00 +11°C° 0 mm 3 m/s 754 mmHg 80%
    07:00 +12°C° 0 mm 3 m/s 754 mmHg 79%
    08:00 +13°C° 0 mm 2 m/s 754 mmHg 78%
    09:00 +15°C° 0 mm 2 m/s 755 mmHg 71%
    10:00 +16°C° 0 mm 2 m/s 755 mmHg 64%
    11:00 +17°C° 0 mm 2 m/s 755 mmHg 56%
    12:00 +17°C° 0 mm 2 m/s 755 mmHg 55%
    13:00 +17°C° 0 mm 2 m/s 755 mmHg 55%
    14:00 +17°C° 0 mm 2 m/s 755 mmHg 54%
    15:00 +17°C° 0 mm 2 m/s 755 mmHg 57%
    16:00 +16°C° 0 mm 2 m/s 755 mmHg 61%
    17:00 +15°C° 0 mm 2 m/s 755 mmHg 64%
    18:00 +15°C° 0 mm 2 m/s 755 mmHg 66%
    19:00 +14°C° 0 mm 2 m/s 755 mmHg 68%
    20:00 +13°C° 0 mm 2 m/s 755 mmHg 70%
    21:00 +13°C° 0 mm 2 m/s 755 mmHg 70%
    22:00 +13°C° 0 mm 2 m/s 755 mmHg 70%
    23:00 +13°C° 0 mm 2 m/s 755 mmHg 69%

    Demain, 12 Décembre, Mardi

    Heure Température Précipitation Vent Pression Humidité
    00:00 +13°C° 0 mm 2 m/s 755 mmHg 71%
    01:00 +13°C° 0 mm 2 m/s 755 mmHg 72%
    02:00 +13°C° 0 mm 2 m/s 755 mmHg 74%
    03:00 +12°C° 0 mm 2 m/s 755 mmHg 76%
    04:00 +12°C° 0 mm 2 m/s 755 mmHg 77%
    05:00 +12°C° 0 mm 2 m/s 755 mmHg 79%
    06:00 +12°C° 0 mm 2 m/s 755 mmHg 79%
    07:00 +13°C° 0 mm 2 m/s 755 mmHg 80%
    08:00 +13°C° 0 mm 2 m/s 755 mmHg 80%
    09:00 +14°C° 0 mm 2 m/s 755 mmHg 73%
    10:00 +16°C° 0 mm 1 m/s 756 mmHg 66%
    11:00 +19°C° 0 mm 1 m/s 756 mmHg 59%
    12:00 +19°C° 0 mm 1 m/s 756 mmHg 58%
    13:00 +18°C° 0 mm 2 m/s 755 mmHg 57%
    14:00 +19°C° 0 mm 2 m/s 755 mmHg 57%
    15:00 +18°C° 0 mm 2 m/s 755 mmHg 60%
    16:00 +17°C° 0 mm 2 m/s 755 mmHg 64%
    17:00 +17°C° 0 mm 2 m/s 755 mmHg 68%
    18:00 +16°C° 0 mm 2 m/s 755 mmHg 71%
    19:00 +15°C° 0 mm 2 m/s 755 mmHg 73%
    20:00 +15°C° 0 mm 2 m/s 756 mmHg 76%
    21:00 +15°C° 0 mm 2 m/s 756 mmHg 76%
    22:00 +14°C° 0 mm 2 m/s 756 mmHg 77%
    23:00 +14°C° 0 mm 2 m/s 756 mmHg 77%

    Après-demain, 13 Décembre, Mercredi

    Heure Température Précipitation Vent Pression Humidité
    00:00 +14°C° 0 mm 2 m/s 756 mmHg 77%
    01:00 +13°C° 0 mm 3 m/s 755 mmHg 77%
    02:00 +13°C° 0 mm 3 m/s 755 mmHg 76%
    03:00 +13°C° 0 mm 3 m/s 755 mmHg 76%
    04:00 +13°C° 0 mm 4 m/s 755 mmHg 76%
    05:00 +13°C° 0 mm 4 m/s 755 mmHg 76%
    06:00 +13°C° 0 mm 4 m/s 755 mmHg 75%
    07:00 +13°C° 0 mm 4 m/s 755 mmHg 75%
    08:00 +13°C° 0 mm 4 m/s 755 mmHg 75%
    09:00 +15°C° 0 mm 4 m/s 755 mmHg 69%
    10:00 +17°C° 0 mm 4 m/s 755 mmHg 64%
    11:00 +19°C° 0 mm 5 m/s 756 mmHg 59%
    12:00 +19°C° 0 mm 5 m/s 755 mmHg 59%
    13:00 +19°C° 0 mm 6 m/s 755 mmHg 59%
    14:00 +20°C° 0 mm 6 m/s 754 mmHg 59%
    15:00 +19°C° 0 mm 6 m/s 754 mmHg 64%
    16:00 +17°C° 0 mm 6 m/s 754 mmHg 70%
    17:00 +17°C° 0 mm 6 m/s 753 mmHg 75%
    18:00 +16°C° 0 mm 6 m/s 754 mmHg 78%
    19:00 +15°C° 0 mm 6 m/s 754 mmHg 80%
    20:00 +15°C° 0 mm 6 m/s 754 mmHg 83%
    21:00 +14°C° 0 mm 6 m/s 754 mmHg 83%
    22:00 +14°C° 0 mm 6 m/s 754 mmHg 84%
    23:00 +14°C° 0 mm 6 m/s 754 mmHg 84%

    14 Décembre, Jeudi

    Heure Température Précipitation Vent Pression Humidité
    00:00 +14°C° 0 mm 7 m/s 754 mmHg 84%
    01:00 +14°C° 0 mm 7 m/s 753 mmHg 83%
    02:00 +12°C° 0 mm 7 m/s 753 mmHg 83%
    03:00 +12°C° 0 mm 7 m/s 753 mmHg 83%
    04:00 +12°C° 0 mm 8 m/s 752 mmHg 83%
    05:00 +12°C° 0 mm 8 m/s 752 mmHg 83%
    06:00 +12°C° 0 mm 8 m/s 752 mmHg 83%
    07:00 +12°C° 0 mm 8 m/s 753 mmHg 83%
    08:00 +13°C° 0 mm 8 m/s 753 mmHg 83%
    09:00 +15°C° 0 mm 8 m/s 753 mmHg 77%
    10:00 +16°C° 0 mm 8 m/s 753 mmHg 70%
    11:00 +18°C° 0 mm 7 m/s 753 mmHg 64%
    12:00 +18°C° 0 mm 8 m/s 752 mmHg 61%
    13:00 +20°C° 0 mm 8 m/s 752 mmHg 58%
    14:00 +20°C° 0 mm 8 m/s 752 mmHg 56%
    15:00 +18°C° 0 mm 8 m/s 751 mmHg 61%
    16:00 +18°C° 0 mm 7 m/s 751 mmHg 67%
    17:00 +17°C° 0 mm 7 m/s 751 mmHg 73%
    18:00 +16°C° 0 mm 7 m/s 751 mmHg 75%
    19:00 +16°C° 0 mm 7 m/s 751 mmHg 77%
    20:00 +15°C° 0 mm 7 m/s 751 mmHg 80%
    21:00 +15°C° 0 mm 7 m/s 751 mmHg 81%
    22:00 +15°C° 0 mm 7 m/s 751 mmHg 82%
    23:00 +14°C° 0 mm 7 m/s 751 mmHg 82%

    15 Décembre, Vendredi

    Heure Température Précipitation Vent Pression Humidité
    00:00 +13°C° 0 mm 8 m/s 751 mmHg 83%
    01:00 +13°C° 0 mm 8 m/s 751 mmHg 83%
    02:00 +13°C° 0 mm 8 m/s 751 mmHg 84%
    03:00 +13°C° 0 mm 8 m/s 751 mmHg 84%
    04:00 +12°C° 0 mm 7 m/s 750 mmHg 83%
    05:00 +12°C° 0 mm 7 m/s 750 mmHg 83%
    06:00 +12°C° 0 mm 7 m/s 750 mmHg 82%
    07:00 +12°C° 0 mm 7 m/s 751 mmHg 81%
    08:00 +12°C° 0 mm 7 m/s 751 mmHg 80%
    09:00 +14°C° 0 mm 7 m/s 751 mmHg 74%
    10:00 +16°C° 0 mm 6 m/s 751 mmHg 68%
    11:00 +17°C° 0 mm 6 m/s 751 mmHg 63%
    12:00 +17°C° 0 mm 7 m/s 751 mmHg 63%
    13:00 +17°C° 0 mm 7 m/s 751 mmHg 63%
    14:00 +18°C° 0 mm 7 m/s 751 mmHg 62%
    15:00 +17°C° 0 mm 7 m/s 751 mmHg 66%
    16:00 +16°C° 0 mm 7 m/s 751 mmHg 70%
    17:00 +15°C° 0 mm 7 m/s 751 mmHg 73%
    18:00 +15°C° 0 mm 7 m/s 751 mmHg 76%
    19:00 +15°C° 0 mm 7 m/s 751 mmHg 78%
    20:00 +14°C° 0 mm 7 m/s 751 mmHg 80%
    21:00 +14°C° 0 mm 7 m/s 751 mmHg 80%
    22:00 +14°C° 0 mm 6 m/s 751 mmHg 81%
    23:00 +14°C° 0 mm 6 m/s 751 mmHg 82%

    16 Décembre, Samedi

    Heure Température Précipitation Vent Pression Humidité
    00:00 +14°C° 0 mm 6 m/s 751 mmHg 82%
    01:00 +14°C° 0 mm 6 m/s 751 mmHg 82%
    02:00 +14°C° 0 mm 6 m/s 751 mmHg 82%
    03:00 +14°C° 0 mm 6 m/s 751 mmHg 83%
    04:00 +14°C° 0 mm 6 m/s 751 mmHg 83%
    05:00 +14°C° 0 mm 5 m/s 751 mmHg 84%
    06:00 +14°C° 0 mm 5 m/s 751 mmHg 84%
    07:00 +14°C° 0 mm 5 m/s 751 mmHg 85%
    08:00 +14°C° 0 mm 5 m/s 751 mmHg 85%
    09:00 +15°C° 0 mm 4 m/s 751 mmHg 80%
    10:00 +17°C° 0 mm 4 m/s 751 mmHg 75%
    11:00 +18°C° 0 mm 4 m/s 751 mmHg 70%
    12:00 +19°C° 0 mm 4 m/s 751 mmHg 70%
    13:00 +19°C° 0 mm 4 m/s 750 mmHg 69%
    14:00 +19°C° 0 mm 4 m/s 750 mmHg 69%
    15:00 +18°C° 0 mm 3 m/s 750 mmHg 73%
    16:00 +17°C° 0 mm 3 m/s 750 mmHg 78%
    17:00 +16°C° 0 mm 3 m/s 750 mmHg 82%
    18:00 +16°C° 0 mm 3 m/s 750 mmHg 84%
    19:00 +14°C° 0 mm 3 m/s 750 mmHg 86%
    20:00 +13°C° 0 mm 3 m/s 750 mmHg 88%
    21:00 +13°C° 0 mm 4 m/s 750 mmHg 87%
    22:00 +13°C° 0 mm 4 m/s 750 mmHg 86%
    23:00 +13°C° 0 mm 4 m/s 750 mmHg 86%
    Voir plus